Location: ČR
(50.0000°N, 15.0000°E)
Time: 21:43:44
(UTC+00:00)

Vanguard 3 - Pass Details

Date: 22 October 2021
Orbit: 508 x 3260 km, 33.4° (Epoch: 04 December)

Event Time Altitude Azimuth Distance (km) Brightness Sun altitude
Rises 23:51:19 0° 262° (W) 6,084 - -48.7°
Reaches altitude 10° 00:01:58 10° 228° (SW) 5,797 - -47.9°
Maximum altitude 00:03:51 10° 222° (SW) 5,866 - -47.8°
Drops below altitude 10° 00:05:48 10° 215° (SW) 5,969 - -47.6°
Sets 00:18:40 0° 182° (S) 7,213 - -46.5°
